Погода в Туркестане

Казахстан     43°18′02″N   68°16′13″E
темп.,
°C
ветер,
м/с
пор.,
м/с
влажн.,
%
обл.,
%
осадки,
мм/ч
давл.,
гПа
погр.,
м
25 февраля, чт
чт2500:00−10з7114257 0.0 10311459
03:00−10зюз611450 0.0 10331480
06:00−10юз611490 0.0 10341411
09:00−10юз812470 0.0 10371391
12:00−8зюз1012380 0.0 10371373
15:00−6зюз10123220 0.0 10381509
18:00−6з8103110 0.0 10381444
21:00−8зюз36430 0.0 1040236
26 февраля, пт
пт2600:00−9зюз22460 0.0 104130
03:00−10ссв11510 0.0 104022
06:00−10всв23520 0.0 103929
09:00−10всв34500 0.0 1039111
12:00−7всв113147 0.0 1038627
15:00−4зюз122666 0.0 10361113
18:00−4св112573 0.0 10341039
21:00−5в354496 0.0 1034301
27 февраля, сб
сб2700:00−6в344898 0.0 1032238
03:00−5всв1244100 0.0 1031193
06:00−5в0148100 0.0 103137
09:00−5юв1242100 0.0 1031131
12:00−2юв112773 0.0 1031646
15:00+1ююз23230 0.0 10301212
18:00+2ююз24290 0.0 10301287
21:00−2в22420 0.0 103024
28 февраля, вс
вс2800:00−2вюв46480 0.0 1030133
03:00−3вюв466358 0.0 1028133
06:00−3в466629 0.0 1027126
09:00−2вюв57580 0.0 1027187
12:00+3вюв44380 0.0 1025410
15:00+6вюв22320 0.0 1023731
18:00+7вюв33320 0.0 1021845
21:00+3в45470 0.0 102165
1 марта, пн
пн100:00+2в44470 0.0 102149
03:00+1юв34470 0.0 102038
06:000вюв34490 0.0 102043
09:00+1вюв34450 0.0 102182
12:00+7юв34320 0.0 1020334
15:00+11ю12270 0.0 1019919
18:00+12юв122630 0.0 1019861
21:00+7всв45400 0.0 102080